Tracking 31027 objects as of 19-Jul-2025
HD Live streaming from Space Station
objects crossing your sky now

STARLINK-2381

Track STARLINK-2381 now!
10-day predictions
STARLINK-2381 is classified as:


NORAD ID: 47800
Int'l Code: 2021-018P
Perigee: 553.7 km
Apogee: 555.0 km
Inclination: 53.1 °
Period: 95.6 minutes
Semi major axis: 6925 km
RCS: Unknown
Launch date: March 11, 2021
Source: United States (US)
Launch site: AIR FORCE EASTERN TEST RANGE (AFETR)
Your satellite tracking list
IRIDIUM 33 DEB
Track 1 satellite(s)




NASA's NSSDC Master Catalog

Two Line Element Set (TLE):
1 47800U 21018P   25199.28427802 -.00000095  00000-0  12514-4 0  9992
2 47800  53.0539 203.9070 0000895  88.9195 271.1897 15.06405146241542
Source of the keplerian elements: AFSPC